Airfield :







YOU CAN JOIN US ON...

 
LOGIN :

Register | Disclaimer

   EN    FR    IT 

 









Legend :    VFR   Marginal VFR   IFR   Intensive IFR   Very Intensive IFR
Visi :
Ceiling :
>= 8 km
>= 3000ft
5 to 8 km
1000 to 3000 ft
1500m to 5 km
500 to 1000 ft
800 to 1500m
200 to 500 ft
< 800m
< 200 ft
Symbols :   Thunderstorms  Fog  Heavy snow  Heavy precipitations  Wind > 20 kt






- Airport Elevation : 235 ft
- IATA code : CCS


SVMI - Simon Bolivar

CURRENT METAR :
  • 271202Z AUTO 25002KT NCD ///// Q1011

EXPIRED METARs :
  • 271102Z AUTO 26003KT NCD ///// Q1011
  • 271002Z AUTO 23005KT NCD ///// Q1010
  • 271000Z 00000KT 9999 SCT016 SCT070 25/22 Q1012

TAF TAF SVMI
Valid from the 27 at 12:00 until the 28 at 12:00 UTC


271000Z 2712/2812 21005KT 9999 SCT016 TX33/2718Z TN23/2708Z
BECMG 2716/2720 00000KT 9999 SCT016
SVZM FIR / South America



MET'MAP, your aeronautical weather chart ! - Copyright ORBIFLY December 2007 - Disclaimer

ORBIFLY MET'MAP TEAM :

Programming & Development : Alexandra Zaïnal
Concept & original design : Baudouin d'Aumeries
Assistance for programming : Marc-Olivier Méhu
Technical & hardware support : Manuel Goepfert

Contact : metmap@orbifly.com




SOURCES & CREDITS :

   NOAA